BEIDOU-2 IGSO-4 (C09)

Last updated on Thu Nov 21 2024 00:03:16 GMT+0000 (Coordinated Universal Time)

1 37763U 11038A 24325.54792069 -.00000015 00000+0 00000+0 0 9992 2 37763 54.5617 170.7958 0129657 228.5753 314.2752 1.00275323 48891
UTC large
Height (km)
Speed (km/s)
/
Latitude / Longitude
Inclination (degrees)
Orbital Period (minutes)
Azimuth
Elevation
Range (km)
Doppler Factor

Next 0 passes for location: London (51.5072 / 0.1276)

Sorry there are no passes over London.